Temperature
9 9 9 9 9 10 10 10 10 10 10 10 10 10 10 10 10 10 10 10 10 10 10 10 10 11 11 11 11 11 11 11 11 11 11 11 11 11 11 11 11 11 11
8 9 9 9 9 9 9 9 9 9 9 9 10 10 10 10 10 10 10 10 10 10 10 10 10 10 10 10 10 10 11 11 11 11 10 11 11 11 11 11 11 10 11
8 8 8 8 8 8 8 8 8 9 9 9 9 9 9 9 9 9 10 10 10 10 10 10 10 10 10 10 10 10 10 10 10 10 10 10 10 10 10 10 10 10 10
7 7 8 8 8 8 8 8 8 8 8 8 8 9 9 9 9 9 9 9 9 9 9 9 9 10 10 10 10 10 10 10 10 10 10 10 10 10 10 10 10 10 10
7 7 7 7 7 7 7 7 7 7 8 8 8 8 8 8 9 9 9 9 9 9 9 9 9 9 9 9 10 10 10 10 10 10 10 10 10 10 10 10 10 10 10
6 6 6 7 7 7 7 7 7 7 7 7 7 7 8 8 8 8 8 8 8 8 8 8 8 9 9 9 9 9 9 9 10 10 10 10 10 10 10 10 10 9 10
6 6 6 6 6 6 6 6 6 6 7 7 7 7 7 7 7 7 7 7 8 8 8 8 8 8 9 9 9 9 9 9 9 9 9 9 9 9 9 9 9 9 9
5 5 5 5 5 5 5 6 6 6 6 6 6 6 6 6 6 6 7 7 7 7 7 7 8 8 8 8 8 9 9 9 9 9 9 9 9 9 9 9 9 9 9
4 4 4 4 5 5 5 5 5 5 5 5 5 5 5 5 5 6 6 6 6 6 7 7 7 7 8 8 8 8 8 8 8 8 8 8 8 8 8 8 9 9 9
4 4 4 4 4 4 4 4 4 4 5 5 5 5 5 5 4 5 5 6 6 6 6 6 6 7 7 7 7 7 8 8 8 8 8 8 8 8 8 8 8 9 9
3 3 3 3 3 3 3 4 4 4 4 4 4 4 4 4 4 4 4 5 5 6 6 6 6 6 6 7 7 7 7 7 7 7 8 8 8 8 8 8 8 8 8
2 3 3 3 3 3 3 3 3 3 3 3 3 3 3 4 4 4 4 4 4 5 5 6 6 6 6 6 6 6 6 7 7 7 7 7 7 7 7 8 8 8 8
2 2 2 2 2 2 2 2 2 2 2 2 2 3 3 3 3 3 3 3 3 4 5 5 5 5 5 5 5 6 6 6 6 6 6 7 7 7 7 7 7 8 8
1 1 1 1 1 1 2 2 2 2 2 2 2 2 2 3 3 3 3 3 2 3 3 4 4 4 4 5 5 5 5 5 5 6 6 6 6 7 7 7 7 7 7
0 0 1 1 1 1 1 1 1 1 1 1 1 1 2 2 2 2 2 2 2 2 2 3 3 4 4 4 4 4 4 5 5 5 5 5 6 6 6 6 6 7 7
-1 -0 -0 0 0 0 0 0 0 1 1 1 1 1 1 2 2 2 2 2 2 2 1 2 2 3 3 3 3 4 4 4 4 4 5 5 5 5 6 6 6 6 6
-1 -1 -1 -1 -1 -1 -0 -0 -0 -0 -0 0 0 0 0 1 1 1 1 1 1 1 1 2 2 2 2 3 3 3 3 3 4 4 4 4 4 5 5 5 5 5 5
-2 -2 -2 -1 -1 -1 -1 -1 -1 -1 -1 -1 -1 -0 -0 0 0 1 1 1 1 1 1 1 1 2 2 2 2 2 3 3 3 3 4 4 4 4 4 4 5 5 5
-3 -2 -2 -2 -2 -2 -2 -2 -2 -2 -2 -1 -1 -1 -1 -1 -0 0 0 0 1 1 1 1 1 1 1 2 2 2 2 2 2 3 3 3 3 3 4 4 4 4 4
-3 -3 -3 -3 -3 -3 -3 -3 -2 -2 -2 -2 -2 -2 -1 -1 -1 -0 -0 -0 0 0 0 0 0 0 1 1 1 1 2 2 2 2 2 3 3 3 3 3 3 3 4
-4 -4 -4 -4 -3 -3 -3 -3 -3 -3 -3 -2 -2 -2 -2 -2 -1 -1 -1 -1 -1 -0 -0 -0 -0 -0 -0 0 0 0 1 1 1 2 2 2 2 2 2 2 3 3 3
-5 -5 -4 -4 -4 -4 -3 -3 -3 -3 -3 -3 -3 -3 -2 -2 -2 -2 -1 -1 -1 -1 -1 -1 -1 -1 -0 -0 -0 -0 -0 -0 0 1 1 1 1 2 2 2 2 2 2
-5 -5 -5 -5 -4 -4 -4 -4 -4 -4 -4 -3 -3 -3 -3 -3 -3 -2 -2 -2 -2 -1 -1 -1 -1 -1 -1 -0 -1 -1 -1 -1 -0 -0 -0 0 1 1 1 1 1 1 2
-6 -6 -5 -5 -5 -4 -4 -4 -4 -4 -4 -4 -4 -3 -3 -3 -3 -3 -3 -2 -2 -2 -1 -1 -1 -1 -1 -1 -1 -1 -1 -1 -1 -1 -1 -1 -0 0 1 1 1 1 1
-6 -6 -6 -6 -6 -5 -5 -5 -5 -5 -5 -4 -4 -4 -4 -3 -3 -3 -3 -3 -3 -2 -2 -2 -1 -1 -1 -1 -1 -1 -1 -2 -2 -1 -1 -1 -1 -1 -0 0 0 0 0
-6 -6 -6 -6 -6 -6 -5 -5 -6 -6 -5 -5 -5 -4 -4 -4 -3 -3 -3 -3 -3 -3 -2 -2 -2 -2 -2 -2 -2 -2 -2 -2 -2 -2 -2 -2 -2 -2 -2 -1 -0 -0 -0
Wind_Speed
5 5 5 5 6 6 5 5 5 5 5 5 4 4 4 4 4 3 3 2 2 2 1 1 1 2 2 2 2 4 5 6 6 6 6 6 6 6 6 7 7 7 7
5 4 4 5 5 5 5 4 3 3 3 3 3 3 3 3 3 3 3 3 3 2 2 2 1 0 1 1 1 2 5 6 6 6 6 6 5 5 5 6 6 6 6
6 5 4 4 4 4 4 4 4 3 3 3 3 3 3 2 3 3 3 3 3 3 2 3 2 2 1 1 1 2 3 5 6 6 6 6 6 5 5 5 6 6 7
6 6 4 4 4 4 3 3 3 2 2 2 2 2 2 2 2 2 3 3 3 3 3 3 3 3 2 2 1 1 2 3 5 6 7 7 7 6 6 6 6 6 7
6 5 4 4 4 4 3 2 2 2 1 2 2 1 2 2 2 2 3 3 4 4 4 3 3 3 3 3 2 1 1 2 4 5 7 8 8 8 7 7 7 7 8
5 5 4 5 4 3 3 3 2 2 1 1 1 1 1 1 2 2 2 3 4 4 4 3 4 3 3 3 3 3 2 2 3 4 4 7 8 8 8 8 8 8 9
6 4 4 4 4 2 2 2 2 2 2 1 1 1 1 0 1 1 2 2 3 4 4 4 3 3 3 3 4 3 3 3 3 4 5 4 7 9 9 9 9 9 9
5 4 3 2 3 2 2 2 2 1 2 2 0 0 1 1 1 1 1 1 1 3 3 3 3 3 3 3 3 4 4 4 3 4 3 4 5 5 8 9 10 10 10
4 4 3 2 2 2 1 2 1 1 1 2 1 0 1 2 2 1 1 1 1 2 2 3 3 3 3 3 3 3 4 5 5 5 5 5 6 7 6 8 9 10 10
4 4 3 3 1 1 1 2 2 1 1 2 2 1 1 1 1 2 2 1 1 2 2 3 3 3 3 3 3 4 4 5 6 7 7 6 7 7 7 7 9 10 10
4 4 3 3 2 2 2 2 2 2 1 2 2 2 2 2 2 2 3 3 2 2 2 3 3 3 3 3 3 4 5 5 6 7 8 7 8 9 9 8 9 10 10
3 3 4 3 3 3 3 3 2 2 2 2 2 2 2 2 2 2 3 3 3 3 3 3 3 3 4 3 4 5 5 5 6 7 7 7 7 9 10 10 10 11 11
3 4 4 3 3 3 3 3 3 3 3 3 3 3 3 3 2 3 3 3 4 3 3 3 3 4 4 4 5 5 5 6 7 7 8 7 7 7 8 8 9 8 9
4 4 4 4 5 4 4 3 3 3 3 3 4 4 3 3 3 3 3 3 3 3 3 4 3 4 5 5 6 6 5 7 7 8 8 7 7 7 8 8 9 9 8
5 4 4 5 5 4 4 4 4 4 4 4 4 4 4 4 3 3 3 3 4 4 4 4 3 3 5 6 7 6 6 8 8 8 8 7 8 8 8 8 8 9 9
5 5 5 5 5 5 4 4 4 4 4 4 4 4 5 4 4 3 3 4 4 5 5 4 4 3 4 6 8 7 8 9 9 9 8 8 8 8 9 9 9 8 8
6 5 5 5 5 5 5 4 5 5 5 5 5 5 6 5 4 4 3 4 4 4 7 6 4 3 4 4 5 7 7 8 8 9 8 8 9 9 9 9 9 9 8
6 6 6 6 6 6 5 5 6 6 6 6 6 6 6 5 5 5 4 5 5 5 6 8 5 4 5 5 5 5 6 7 7 9 9 9 9 10 10 10 10 9 10
6 6 6 6 6 6 6 6 6 7 7 7 6 6 7 6 7 5 5 5 5 5 4 5 6 4 4 4 4 4 5 5 6 8 8 9 10 11 11 10 10 10 11
6 6 7 7 7 7 7 7 7 7 7 7 7 7 7 7 8 7 6 7 5 5 4 4 5 4 4 3 3 4 4 3 4 5 7 8 10 11 10 10 10 11 11
6 7 7 7 7 7 7 7 7 7 7 7 7 7 8 9 10 8 7 6 6 5 5 5 5 5 4 4 4 4 5 4 4 4 4 5 6 6 7 10 10 11 11
6 6 7 8 8 8 9 10 8 7 8 8 8 8 8 9 10 11 11 10 8 7 7 6 5 6 6 5 5 5 5 5 5 3 3 5 4 5 6 8 10 11 11
6 7 8 8 9 9 11 11 10 8 8 8 8 8 7 8 9 8 9 10 10 11 11 9 8 8 7 7 6 7 7 7 7 4 4 6 4 6 6 9 11 11 11
6 7 8 8 9 10 11 11 11 8 8 9 9 9 9 8 8 8 7 8 9 9 10 9 9 9 8 7 8 8 8 7 6 4 4 6 5 6 6 7 10 11 12
7 7 8 8 9 10 11 11 10 7 7 9 9 9 9 9 11 10 8 8 9 9 11 12 12 12 12 12 9 5 5 6 7 5 3 4 4 4 5 5 8 11 11
8 8 8 8 9 10 12 12 11 7 8 8 8 8 10 11 11 11 9 8 10 9 7 8 8 8 8 9 11 9 7 7 6 5 4 3 3 2 4 4 4 6 7
Wind_Direction
39 38 35 36 34 37 41 36 42 41 40 45 48 48 43 33 29 25 17 18 33 43 42 44 176 173 169 171 165 179 176 170 165 158 151 144 135 131 138 139 137 133 131
39 39 37 33 29 31 32 35 34 32 29 41 39 37 36 29 26 17 14 11 21 38 46 35 35 63 205 198 195 198 193 185 181 175 171 166 154 154 149 153 156 149 146
33 35 37 31 21 25 32 36 34 32 24 25 21 24 24 20 27 17 24 28 14 8 25 28 23 16 8 330 227 227 209 201 194 188 185 182 177 172 172 166 170 166 162
31 33 33 24 17 24 33 30 19 11 6 357 346 356 11 22 35 35 40 35 31 21 15 23 27 27 10 357 345 298 234 217 208 201 196 194 193 191 194 189 187 183 180
29 34 29 19 24 29 24 16 13 354 352 342 327 343 8 11 38 53 50 42 42 34 30 20 15 11 4 357 345 332 292 244 225 216 211 204 203 204 205 206 201 199 196
22 33 30 19 25 27 17 10 356 350 341 317 321 340 330 346 51 58 54 43 37 29 35 35 26 7 353 346 334 332 301 256 254 230 221 220 216 215 214 214 211 210 207
18 32 29 22 21 18 1 3 4 353 357 353 19 348 336 314 62 52 33 40 30 21 29 26 19 15 356 338 331 323 315 276 266 254 233 231 227 225 221 221 219 216 214
13 18 29 20 14 9 11 7 18 342 335 352 17 32 310 299 326 316 321 342 8 21 8 356 1 354 345 341 319 315 308 295 277 270 255 242 240 235 229 226 225 224 222
3 6 4 9 8 8 344 319 347 348 308 315 345 153 196 247 294 279 266 282 323 352 354 335 332 331 326 338 339 323 319 306 278 275 266 256 249 244 249 238 231 229 229
357 353 354 353 349 350 311 302 328 302 296 290 315 324 283 248 245 285 291 288 305 299 310 315 301 300 310 323 323 322 316 311 288 281 273 264 255 249 248 251 244 237 234
344 345 338 338 327 308 294 289 301 306 279 277 289 299 308 302 255 252 275 288 294 273 282 287 279 278 285 298 304 303 300 300 297 282 277 268 261 253 251 255 252 247 243
322 327 323 312 311 304 284 270 270 273 274 272 283 276 267 271 267 259 265 275 281 279 281 273 265 262 272 273 284 294 294 294 293 293 288 285 280 268 258 258 261 251 245
304 300 308 301 292 292 288 276 259 269 271 266 260 267 265 267 273 267 258 273 281 284 280 264 257 255 269 272 281 281 281 287 290 292 291 291 293 294 277 267 269 264 252
275 282 284 285 282 277 284 283 257 254 255 259 265 264 268 268 264 261 253 257 275 276 268 262 263 257 261 271 277 273 277 277 281 286 287 284 287 288 288 277 271 265 262
277 277 276 274 279 278 270 281 265 249 248 252 258 262 266 266 261 257 251 238 236 255 262 259 251 250 263 275 275 274 271 276 276 278 277 276 280 278 282 281 281 268 262
270 270 271 270 271 276 269 266 276 254 244 254 259 259 266 270 263 258 247 248 243 243 256 256 255 262 269 278 275 275 271 275 274 271 266 266 270 273 275 275 276 272 267
266 260 262 265 266 265 262 256 267 256 246 254 258 258 266 269 261 256 249 243 245 245 254 267 264 262 251 259 277 273 269 266 268 265 263 265 266 267 268 270 270 266 267
264 260 260 260 262 262 257 254 263 260 247 251 255 258 264 269 265 257 245 247 248 251 254 263 270 260 255 251 255 257 269 267 265 265 265 266 266 267 266 265 267 264 264
262 262 259 255 258 259 259 255 258 260 248 246 249 253 258 261 264 261 252 250 252 260 262 255 262 263 266 255 255 261 263 265 266 260 261 264 264 264 262 262 263 262 262
257 253 256 256 256 257 256 253 257 260 249 248 249 251 253 253 259 258 255 248 252 253 251 248 258 262 266 248 237 256 272 258 258 258 262 264 262 260 260 260 262 263 261
263 253 253 255 256 254 251 249 251 258 253 253 254 254 256 256 259 258 257 250 244 237 236 241 247 254 256 244 243 248 266 269 262 244 247 252 250 252 255 258 259 261 258
268 258 250 251 254 256 257 256 254 258 257 252 254 258 259 257 263 265 266 264 256 242 239 240 248 248 249 245 248 250 259 267 269 227 238 258 239 247 253 250 252 255 256
268 266 257 250 253 256 259 258 258 263 258 250 249 254 261 263 266 262 267 269 263 256 247 244 245 245 246 240 239 245 245 251 264 242 258 269 246 255 251 252 253 254 255
263 263 264 255 255 260 261 259 260 261 260 253 247 247 252 257 259 257 259 261 258 252 248 244 242 241 242 238 230 238 244 262 273 248 236 263 261 262 265 253 253 253 255
264 262 262 260 256 260 261 260 260 256 259 258 255 250 247 252 261 262 259 259 265 264 263 257 253 251 250 248 243 239 240 248 267 263 230 245 262 273 271 258 252 250 253
260 262 264 260 257 259 261 261 257 252 259 260 258 255 254 257 261 258 251 252 258 263 265 265 263 258 252 246 240 230 230 237 258 263 224 228 248 268 282 266 242 244 250
Height
1535 1535 1536 1536 1536 1536 1537 1537 1537 1538 1539 1539 1540 1540 1541 1541 1542 1542 1543 1544 1544 1545 1546 1547 1548 1549 1550 1551 1552 1553 1553 1554 1555 1556 1557 1558 1558 1559 1560 1561 1561 1562 1563
1534 1534 1534 1535 1535 1535 1535 1536 1536 1537 1537 1538 1538 1539 1539 1540 1540 1540 1541 1542 1542 1543 1544 1545 1546 1547 1548 1549 1550 1551 1552 1553 1554 1555 1555 1556 1557 1558 1559 1560 1560 1561 1562
1532 1533 1533 1533 1533 1533 1534 1534 1535 1535 1535 1535 1536 1537 1537 1538 1538 1538 1539 1539 1540 1541 1542 1542 1543 1544 1545 1546 1548 1549 1550 1551 1552 1553 1554 1555 1555 1556 1557 1558 1559 1560 1561
1530 1531 1531 1531 1531 1532 1532 1532 1532 1533 1533 1533 1534 1534 1535 1535 1536 1536 1537 1537 1538 1539 1539 1540 1541 1542 1543 1544 1545 1546 1547 1548 1550 1551 1551 1553 1554 1555 1555 1556 1557 1558 1559
1528 1529 1529 1529 1529 1529 1530 1530 1530 1530 1530 1531 1531 1532 1532 1533 1533 1534 1535 1535 1536 1536 1537 1537 1538 1539 1540 1541 1542 1543 1544 1546 1547 1548 1549 1550 1551 1552 1553 1554 1555 1556 1557
1526 1526 1526 1527 1527 1527 1527 1528 1528 1528 1528 1529 1529 1529 1530 1531 1531 1532 1532 1533 1533 1534 1535 1535 1536 1536 1537 1538 1539 1540 1541 1542 1544 1545 1546 1547 1548 1549 1551 1552 1553 1554 1555
1523 1523 1524 1524 1524 1525 1525 1525 1525 1526 1526 1526 1526 1526 1527 1528 1528 1529 1530 1530 1531 1531 1532 1533 1533 1533 1534 1535 1536 1537 1537 1539 1540 1541 1543 1544 1545 1546 1547 1549 1550 1551 1552
1520 1520 1521 1521 1521 1522 1522 1522 1523 1523 1523 1524 1524 1524 1524 1525 1525 1526 1526 1527 1528 1528 1529 1530 1530 1531 1531 1532 1532 1533 1534 1535 1536 1537 1539 1540 1541 1543 1544 1545 1546 1548 1549
1517 1517 1517 1518 1518 1519 1519 1519 1520 1520 1519 1521 1522 1523 1522 1521 1521 1522 1522 1523 1524 1525 1526 1526 1527 1527 1528 1528 1529 1529 1531 1531 1532 1533 1535 1536 1537 1539 1540 1541 1543 1544 1545
1514 1514 1514 1515 1515 1515 1516 1516 1517 1517 1517 1517 1518 1519 1520 1520 1520 1518 1519 1520 1521 1521 1522 1523 1523 1524 1524 1524 1525 1526 1527 1527 1528 1530 1530 1532 1533 1535 1536 1537 1539 1540 1541
1511 1511 1511 1512 1512 1512 1512 1513 1513 1514 1514 1514 1515 1515 1516 1517 1516 1516 1515 1515 1516 1517 1518 1519 1520 1520 1520 1520 1521 1522 1523 1523 1524 1525 1526 1527 1528 1530 1531 1533 1534 1535 1537
1507 1507 1508 1508 1508 1508 1508 1509 1509 1510 1510 1511 1511 1512 1512 1513 1513 1513 1512 1511 1511 1512 1513 1514 1515 1515 1516 1516 1517 1518 1519 1519 1520 1521 1521 1522 1523 1524 1526 1528 1529 1530 1532
1502 1503 1503 1504 1504 1504 1504 1505 1505 1505 1506 1506 1507 1508 1508 1509 1509 1510 1509 1508 1507 1507 1508 1509 1510 1511 1511 1512 1512 1513 1514 1515 1515 1516 1516 1517 1518 1519 1521 1522 1523 1525 1526
1498 1499 1499 1499 1500 1500 1500 1500 1500 1501 1501 1502 1502 1503 1503 1504 1505 1505 1506 1505 1503 1503 1503 1503 1505 1506 1506 1507 1508 1508 1509 1510 1510 1511 1511 1512 1513 1514 1515 1517 1518 1519 1521
1494 1494 1495 1495 1495 1495 1495 1495 1495 1496 1496 1497 1498 1498 1499 1499 1500 1500 1501 1502 1502 1499 1498 1498 1499 1501 1502 1502 1503 1503 1504 1505 1505 1506 1506 1507 1508 1509 1510 1511 1512 1514 1515
1489 1489 1489 1489 1490 1490 1490 1490 1490 1490 1491 1491 1492 1493 1493 1494 1494 1495 1496 1496 1497 1496 1494 1493 1494 1495 1496 1497 1498 1499 1499 1500 1500 1501 1501 1502 1503 1504 1505 1506 1507 1507 1509
1484 1484 1484 1484 1484 1484 1484 1485 1485 1485 1485 1486 1487 1487 1488 1489 1489 1489 1490 1491 1491 1491 1489 1487 1489 1490 1491 1492 1493 1494 1494 1494 1495 1495 1496 1496 1497 1498 1499 1500 1501 1502 1503
1479 1478 1478 1478 1478 1478 1479 1479 1479 1479 1479 1480 1481 1482 1482 1483 1483 1484 1484 1484 1485 1485 1484 1482 1483 1484 1485 1486 1487 1488 1488 1489 1489 1489 1490 1490 1491 1492 1493 1495 1495 1496 1497
1473 1473 1473 1472 1472 1473 1473 1473 1473 1474 1474 1474 1475 1476 1476 1477 1477 1478 1478 1478 1478 1478 1478 1477 1477 1479 1479 1481 1481 1482 1483 1483 1484 1484 1484 1485 1485 1487 1488 1489 1489 1490 1491
1467 1467 1467 1467 1467 1467 1467 1467 1468 1468 1468 1468 1469 1469 1470 1471 1471 1472 1472 1472 1472 1472 1472 1472 1472 1473 1474 1475 1476 1476 1476 1477 1478 1478 1478 1479 1480 1481 1481 1482 1483 1484 1485
1461 1461 1461 1461 1461 1461 1461 1461 1462 1462 1462 1462 1462 1463 1464 1465 1465 1466 1466 1466 1467 1466 1467 1467 1467 1468 1468 1469 1470 1470 1471 1471 1471 1472 1472 1473 1474 1474 1474 1475 1476 1477 1478
1455 1455 1455 1454 1454 1455 1455 1456 1456 1456 1456 1456 1456 1457 1458 1459 1459 1460 1460 1461 1461 1461 1461 1461 1461 1462 1463 1464 1465 1466 1466 1465 1464 1466 1466 1466 1467 1467 1467 1469 1469 1471 1471
1449 1449 1449 1448 1448 1448 1449 1449 1450 1450 1450 1450 1450 1451 1451 1452 1453 1454 1454 1455 1455 1455 1456 1457 1456 1456 1458 1459 1460 1460 1460 1459 1458 1459 1460 1458 1459 1459 1461 1462 1463 1464 1464
1443 1442 1442 1441 1441 1441 1442 1443 1444 1444 1444 1444 1444 1445 1445 1446 1446 1447 1448 1448 1448 1448 1450 1451 1451 1451 1453 1454 1454 1454 1454 1453 1452 1453 1454 1452 1451 1453 1453 1454 1455 1456 1458
1437 1436 1436 1435 1435 1434 1436 1436 1437 1437 1437 1437 1438 1439 1439 1439 1440 1441 1442 1441 1441 1442 1443 1444 1445 1446 1447 1448 1449 1448 1448 1447 1444 1445 1447 1446 1445 1446 1446 1446 1448 1449 1450
1430 1430 1429 1429 1428 1428 1429 1430 1431 1432 1431 1431 1431 1432 1433 1433 1434 1435 1435 1435 1435 1435 1436 1436 1437 1438 1439 1440 1441 1441 1441 1440 1438 1438 1439 1440 1439 1440 1439 1439 1441 1442 1442